Location: Tamazert
(32.6352°N, 5.2072°W)
Time: 05:40:37
(UTC+00:00)

Vanguard 2 - Pass Details

Date: 05 October 2022
Orbit: 553 x 2933 km, 32.9° (Epoch: 26 November)

Event Time Altitude Azimuth Distance (km) Brightness Sun altitude
Rises 19:55:09 0° 283° (WNW) 6,564 13.7 -24.9°
Reaches altitude 10° 20:00:14 10° 273° (W) 5,694 12.9 -25.9°
Maximum altitude 20:14:03 29° 222° (SW) 4,265 11.4 -28.8°
Drops below altitude 10° 20:26:38 10° 170° (S) 5,112 11.5 -31.4°
Enters shadow 20:28:28 - 165° (SSE) 5,393 11.6 -31.7°
Sets 20:30:58 0° 159° (SSE) 5,814 - -32.2°
